Location: Florence
(33.9745°N, 118.2481°W)
Time: 20:04:32
(UTC+00:00)

Spot 4 Rocket - Pass Details

Date: 23 March 2023
Orbit: 773 x 779 km, 98.8° (Epoch: 06 June)

Event Time Altitude Azimuth Distance (km) Brightness Sun altitude
Rises 13:11:41 0° 5° (N) 3,267 7.4 -9.3°
Reaches altitude 10° 13:14:05 10° 359° (N) 2,336 6.6 -8.8°
Maximum altitude 13:18:57 44° 288° (WNW) 1,069 4.4 -7.8°
Drops below altitude 10° 13:23:48 10° 217° (SW) 2,325 6.1 -6.8°
Sets 13:26:11 0° 211° (SSW) 3,249 6.9 -6.3°
